This is the latest recevied weather packets stored in our database for station/object K0WXC-1. If no packets are shown the sender has not sent any weather packets the latest 1 day(s).
| Time | Temp. | Humidity | Pressure | Rain* | Wind** | Luminosity | Snow |
|---|---|---|---|---|---|---|---|
| 1778077828 | 9.44° C | 48% | 1004.4 hPa | 0 mm | 0.89 m/s, 41° | - | - |
| 1778077708 | 9.44° C | 48% | 1004.4 hPa | 0 mm | 0.89 m/s, 41° | - | - |
| 1778077648 | 9.44° C | 48% | 1004.4 hPa | 0 mm | 0.89 m/s, 41° | - | - |
| 1778077588 | 9.44° C | 48% | 1004.4 hPa | 0 mm | 0.89 m/s, 41° | - | - |
| 1778077408 | 9.44° C | 48% | 1004.2 hPa | 0 mm | 1.79 m/s, 16° | - | - |
| 1778077288 | 9.44° C | 48% | 1004.2 hPa | 0 mm | 1.79 m/s, 16° | - | - |
| 1778077228 | 10° C | 45% | 1004.4 hPa | 0 mm | 1.34 m/s, 31° | - | - |
| 1778077108 | 10° C | 45% | 1004.4 hPa | 0 mm | 1.34 m/s, 31° | - | - |
| 1778076988 | 10° C | 45% | 1004.4 hPa | 0 mm | 1.34 m/s, 31° | - | - |
| 1778076928 | 10° C | 47% | 1004.2 hPa | 0 mm | 3.13 m/s, 2° | - | - |
| 1778076688 | 10° C | 47% | 1004.2 hPa | 0 mm | 3.13 m/s, 2° | - | - |
| 1778076628 | 10° C | 51% | 1004.2 hPa | 0 mm | 1.34 m/s, 47° | - | - |
| 1778076568 | 10° C | 51% | 1004.2 hPa | 0 mm | 1.34 m/s, 47° | - | - |
| 1778076148 | 9.44° C | 51% | 1004.2 hPa | 0 mm | 1.34 m/s, 271° | - | - |
| 1778076088 | 9.44° C | 51% | 1004.2 hPa | 0 mm | 1.34 m/s, 271° | - | - |
| 1778075968 | 9.44° C | 53% | 1004.1 hPa | 0 mm | 0.89 m/s, 71° | - | - |
| 1778075908 | 9.44° C | 53% | 1004.1 hPa | 0 mm | 0.89 m/s, 71° | - | - |
| 1778075848 | 9.44° C | 53% | 1004.1 hPa | 0 mm | 0.89 m/s, 71° | - | - |
| 1778075788 | 9.44° C | 53% | 1004.1 hPa | 0 mm | 0.89 m/s, 71° | - | - |
| 1778075728 | 9.44° C | 52% | 1003.9 hPa | 0 mm | 0.45 m/s, 135° | - | - |
| 1778075668 | 9.44° C | 52% | 1003.9 hPa | 0 mm | 0.45 m/s, 135° | - | - |
| 1778075608 | 9.44° C | 52% | 1003.9 hPa | 0 mm | 0.45 m/s, 135° | - | - |
| 1778075488 | 9.44° C | 52% | 1003.9 hPa | 0 mm | 0.45 m/s, 135° | - | - |
| 1778075308 | 8.89° C | 53% | 1003.9 hPa | 0 mm | 0.89 m/s, 37° | - | - |
| 1778075248 | 8.89° C | 53% | 1003.9 hPa | 0 mm | 0.89 m/s, 37° | - | - |
* Rain latest hour (hover to see other rain measurements)
** Current wind speed in m/s (hover to see current wind gust speed)